Theta_e
303 303 303 303 304 304 305 305 305 304 304 300 298 301 299 301 296 308 312 313 310 302 292 293 290 291 294 298 297 298 296 295 296 295 295 291 293 295 294 293 293 295 292 293 291 293 290 294 292 296 296 298 300 304 304 302 301 300 298 299 298 305 286 286 288 293 295 297 299 299 300 298 295 295 297 295 292 293 289 288 290 286 288 284 283 283 288
303 303 303 304 304 304 305 305 305 305 304 300 300 297 297 299 300 303 311 314 311 296 283 284 285 291 295 295 294 298 296 295 294 294 294 293 292 293 294 294 296 293 295 293 290 295 285 296 295 293 296 295 304 303 304 303 301 299 298 294 298 288 289 289 283 283 284 287 292 292 296 296 291 290 293 297 298 297 297 294 290 284 286 288 283 279 283
303 303 303 304 304 304 304 305 305 305 305 304 300 296 299 298 303 302 305 310 307 294 295 290 285 289 291 291 290 293 295 297 296 295 294 295 293 294 293 294 294 293 295 293 294 295 292 291 297 295 298 297 301 300 302 303 304 303 304 305 301 290 289 288 281 278 276 276 277 280 283 287 291 295 295 297 297 295 292 284 285 281 286 290 285 285 293
302 303 303 303 304 304 305 305 305 305 305 304 301 301 297 296 284 295 297 301 298 298 301 296 292 288 290 285 290 293 291 295 298 298 295 295 295 293 294 295 294 292 292 291 291 291 295 291 294 293 292 297 299 301 302 302 301 307 310 307 301 291 295 292 287 284 282 284 288 293 293 292 287 291 293 295 297 297 294 287 283 283 285 284 289 292 292
302 303 303 303 304 304 304 305 305 304 304 304 300 301 299 301 289 287 284 296 295 292 295 294 294 287 293 282 291 290 291 294 294 299 292 295 294 294 295 293 292 292 291 291 291 293 292 295 293 294 295 296 297 301 302 301 304 310 304 309 297 293 286 292 293 292 292 295 293 296 294 292 292 291 292 295 295 295 292 287 284 292 285 282 289 294 291
302 303 303 303 304 304 305 305 305 304 303 305 304 298 301 289 293 297 297 290 284 284 286 294 293 295 295 290 294 290 290 291 287 296 297 296 296 292 293 294 295 292 293 293 285 290 292 295 289 296 297 294 296 297 300 301 306 306 300 304 297 293 285 293 294 296 295 294 295 294 294 293 293 293 293 293 295 294 290 288 292 292 282 282 291 295 293
302 302 303 303 304 304 304 305 304 304 303 305 304 297 297 297 297 297 300 289 291 291 293 296 294 293 293 289 292 288 289 288 292 291 292 294 294 295 283 292 294 294 295 294 289 291 285 284 295 293 294 296 294 291 296 301 302 300 299 300 301 295 288 295 294 292 293 293 293 294 293 293 293 293 293 294 293 292 292 292 293 294 291 294 295 295 293
302 302 302 303 303 304 304 305 305 303 303 308 305 297 293 291 292 291 297 297 292 294 292 294 293 288 293 285 290 290 292 289 292 296 293 286 293 296 293 292 295 294 293 292 288 290 292 291 287 296 296 294 297 292 294 294 300 299 298 299 298 294 286 294 295 288 290 292 293 293 292 293 291 292 293 293 293 293 292 292 293 295 295 295 294 289 288
302 302 302 303 303 304 304 305 305 303 303 304 302 297 297 298 300 299 293 288 291 292 292 290 288 284 288 287 291 292 292 291 293 292 296 293 290 292 292 295 296 294 293 291 291 293 292 293 293 295 295 289 297 293 294 301 296 298 298 298 296 295 286 294 293 283 284 291 290 291 292 291 290 290 290 291 290 287 289 288 293 292 291 293 292 287 286
301 302 302 303 303 304 305 305 305 304 303 301 301 298 302 299 300 301 297 286 292 289 292 291 288 282 286 291 291 290 291 293 294 287 296 296 295 294 293 293 293 290 290 289 291 294 295 295 296 296 297 298 297 299 300 300 295 296 297 298 292 294 289 285 285 283 282 291 291 291 290 287 283 284 288 292 292 292 292 294 295 292 290 286 287 287 291
301 301 302 303 303 304 304 305 305 304 303 298 298 299 300 295 293 296 297 288 286 289 289 288 288 288 291 293 291 294 293 293 294 287 286 295 294 296 294 292 290 287 289 292 296 297 298 298 298 298 297 297 296 296 299 301 300 300 297 294 294 295 291 285 290 282 283 289 289 289 283 276 280 290 294 295 291 291 289 289 292 294 293 289 293 292 293
301 301 302 302 303 304 304 305 305 305 303 302 302 301 302 302 300 299 291 284 285 292 288 285 288 292 290 291 292 291 291 292 293 295 290 293 294 295 294 293 291 282 293 297 297 297 298 299 300 298 297 297 296 297 298 297 298 300 300 295 290 290 288 284 290 284 283 284 286 282 276 280 288 294 296 296 295 294 291 291 293 296 295 292 289 290 290
301 301 302 302 303 304 304 305 305 305 305 303 302 300 305 304 301 298 293 287 282 286 283 288 292 293 292 292 291 292 293 294 296 296 295 293 293 293 295 292 291 292 297 295 296 295 293 293 293 295 294 295 295 296 296 296 296 299 298 298 291 284 285 286 285 285 285 283 281 276 279 289 294 293 293 296 295 293 292 290 292 292 291 290 289 290 290
301 301 302 302 303 303 304 305 305 306 306 304 301 302 304 303 299 296 294 287 284 287 289 288 290 290 290 291 291 292 292 293 293 295 292 295 292 291 294 294 294 295 296 296 293 293 287 287 283 285 287 290 290 290 292 295 295 296 298 299 298 293 291 287 284 287 281 282 281 281 286 287 287 287 288 289 286 286 286 283 288 294 293 291 290 290 291
301 301 302 302 303 303 304 304 305 305 306 305 303 304 303 302 302 299 299 294 284 285 288 281 287 290 291 290 290 288 288 289 289 287 294 296 293 295 294 295 296 296 296 293 289 291 286 285 280 280 283 282 279 281 291 289 294 296 296 296 298 295 286 287 285 282 285 282 280 280 279 278 282 289 292 294 293 293 294 290 285 294 294 293 291 290 291
301 301 302 302 302 303 304 304 305 305 305 305 303 303 304 304 304 303 299 293 285 280 284 291 293 291 289 289 291 289 285 285 287 289 289 291 290 292 294 295 297 299 296 294 292 287 284 280 280 280 279 280 286 283 281 289 287 293 295 295 297 296 294 289 285 283 282 282 279 279 277 280 284 287 290 293 292 293 294 287 283 291 293 293 292 291 291
301 301 302 302 303 303 304 304 305 305 305 305 301 303 302 305 303 300 297 295 288 281 291 292 294 292 287 287 289 287 289 284 288 283 283 284 289 291 293 296 296 296 295 291 289 285 282 282 285 284 285 289 283 280 288 286 285 286 293 293 293 290 285 285 283 282 282 282 281 278 282 280 286 290 292 295 294 295 291 280 280 291 293 294 293 293 293
301 301 301 302 302 303 304 304 305 305 305 305 303 301 301 304 305 303 299 293 284 284 289 292 290 286 285 286 285 290 292 290 289 291 286 290 290 290 291 293 291 296 297 287 287 282 281 282 280 280 280 289 290 288 277 284 280 281 283 285 283 283 283 283 282 283 283 282 280 283 283 288 290 290 292 293 296 293 281 277 285 293 294 295 295 294 294
301 301 301 302 302 303 303 304 305 305 306 305 304 305 303 304 305 304 299 292 288 282 290 294 295 291 292 294 291 292 291 290 288 283 282 283 286 292 294 294 294 286 293 284 287 281 281 281 287 283 280 284 289 281 287 281 281 286 286 283 283 282 282 282 282 281 281 281 280 280 282 286 289 291 294 294 290 281 279 289 295 294 292 293 294 293 293
301 301 301 302 302 303 303 304 305 305 305 306 304 300 304 305 306 305 298 293 290 286 290 291 293 290 293 290 287 286 288 288 288 284 282 280 289 292 288 284 290 291 287 288 282 286 282 280 281 286 280 281 284 289 284 284 288 284 284 286 281 282 281 280 280 280 281 281 279 278 275 285 292 293 289 290 284 284 292 293 294 295 293 292 293 293 293
301 301 301 301 302 303 303 304 304 305 305 305 304 301 302 303 305 304 304 299 293 284 287 295 295 293 293 292 293 292 290 286 287 284 287 287 291 287 280 279 285 286 282 283 281 282 282 280 282 282 286 284 285 285 280 282 284 288 286 284 285 289 282 281 282 284 277 277 277 277 284 287 292 290 283 288 290 294 294 294 291 294 294 292 292 292 293
301 301 301 301 302 303 303 304 304 305 305 305 304 304 300 303 306 304 306 303 292 286 290 296 296 293 295 296 297 295 293 293 295 294 289 285 290 287 287 288 289 288 289 288 285 283 286 283 286 281 279 282 286 280 283 279 279 285 289 286 279 288 284 284 280 284 281 280 283 288 290 290 291 291 290 291 293 295 295 293 292 291 291 293 292 292 293
300 300 301 301 302 302 303 303 304 304 305 305 303 300 299 303 303 303 303 298 297 297 300 298 295 295 297 297 298 298 297 298 299 297 295 289 284 287 286 285 286 292 292 291 285 285 285 284 280 284 281 282 281 280 283 281 279 282 280 287 286 291 290 290 287 284 290 291 291 292 291 290 290 292 292 292 292 293 294 292 290 291 291 291 290 291 293
300 300 300 301 301 302 302 303 303 304 304 305 304 299 300 303 302 301 300 299 291 287 288 293 289 283 290 291 295 296 297 296 298 299 299 295 284 283 289 292 294 293 290 292 291 287 285 285 284 285 280 283 285 280 278 278 278 283 284 283 287 288 290 287 282 286 285 280 289 289 289 290 290 291 292 293 293 292 292 291 291 292 292 292 292 291 291
300 300 300 300 301 301 302 303 303 303 304 304 304 303 304 304 301 301 297 289 288 288 283 283 286 294 296 297 297 295 296 298 299 298 299 296 293 288 286 291 296 290 289 292 292 287 284 282 283 281 279 285 286 279 283 280 279 285 280 282 283 282 290 286 287 285 283 283 288 289 290 291 292 291 289 290 291 292 292 292 292 292 293 293 292 292 291
300 300 300 300 301 301 302 302 303 303 303 304 304 300 299 300 302 303 300 299 298 294 285 282 289 299 297 296 294 297 300 299 298 299 298 298 299 296 295 295 296 298 295 296 292 285 283 281 282 281 279 281 287 281 280 283 283 286 283 281 288 287 289 281 287 283 286 289 289 291 291 290 290 290 291 291 292 292 292 292 292 292 291 290 291 291 290
300 300 300 300 301 301 302 302 303 303 303 304 302 301 301 303 304 299 297 296 291 286 286 283 289 294 296 295 297 298 299 297 297 297 296 297 296 296 296 293 292 291 290 288 292 285 284 282 281 281 284 284 287 286 285 282 284 280 280 284 288 286 281 287 286 282 282 283 287 289 284 283 288 289 290 290 292 292 292 292 292 292 292 292 291 290 291
300 300 300 300 301 301 302 302 302 303 303 304 302 302 304 304 302 301 301 300 294 286 286 286 286 291 296 294 297 297 298 297 296 296 295 296 297 299 295 293 290 290 289 285 282 282 281 281 281 282 283 284 283 282 286 285 285 283 282 283 286 284 285 282 280 282 282 288 291 292 290 289 290 291 292 292 292 291 290 290 290 291 292 291 290 289 289
299 300 300 300 301 301 302 302 302 303 303 302 301 302 304 305 302 302 302 304 301 296 290 290 292 292 285 291 297 295 297 298 299 297 297 296 297 296 293 294 289 289 291 285 282 282 282 282 284 281 281 287 285 280 283 280 280 279 281 285 287 288 289 289 288 288 290 292 292 291 288 287 290 292 292 292 293 291 289 289 289 289 288 288 288 288 287
300 300 300 301 301 302 302 302 302 302 303 301 301 300 295 296 302 300 300 303 302 299 288 284 282 283 296 295 296 295 296 297 299 299 299 295 296 292 291 291 289 292 291 285 283 279 282 283 283 287 290 291 281 281 280 280 279 280 286 287 288 289 290 291 291 288 286 291 292 292 291 291 292 292 292 293 293 292 289 289 288 288 288 289 288 288 288
300 300 301 301 301 302 302 302 302 303 302 299 299 290 289 286 297 302 301 302 303 299 289 289 284 289 288 295 295 292 295 296 295 295 296 296 294 293 295 293 290 290 282 283 282 282 282 280 281 285 288 286 284 280 279 278 278 279 284 286 287 287 288 289 290 291 292 293 293 293 293 292 292 291 290 290 291 291 289 288 290 292 289 289 288 288 288
300 300 301 301 302 302 302 302 302 302 301 300 294 292 292 294 298 301 302 303 302 298 290 285 283 283 284 288 296 296 296 299 299 297 294 295 294 294 295 294 287 293 288 284 284 283 281 283 281 283 284 288 286 280 280 280 279 279 285 286 287 288 288 288 288 289 290 290 290 288 288 288 290 288 287 290 290 292 290 289 288 288 290 290 289 289 288
301 301 302 302 302 302 302 303 302 301 299 302 304 303 302 301 301 300 303 302 301 295 296 287 282 283 283 288 294 297 298 295 294 293 289 292 292 292 288 294 294 292 297 287 282 281 285 283 283 280 285 289 280 281 278 278 280 285 287 288 287 288 288 288 288 289 288 289 289 286 285 287 288 289 290 290 290 290 289 290 290 289 287 287 288 288 288
301 301 302 302 303 303 302 302 302 302 302 300 298 300 303 302 301 302 301 301 299 297 292 285 281 281 282 290 288 292 295 288 288 290 283 292 294 292 286 289 290 283 287 283 285 284 284 284 280 281 285 281 282 280 277 281 286 287 287 287 287 287 287 287 287 287 288 288 288 288 287 288 290 288 287 287 288 290 290 289 288 287 286 285 287 288 287
301 301 302 303 302 302 302 301 300 301 298 299 301 300 304 301 301 300 302 300 289 287 285 284 284 282 282 283 282 287 297 292 286 289 284 288 295 289 290 283 284 283 283 291 283 283 281 283 286 281 280 284 280 277 279 283 285 286 287 287 288 287 286 285 287 289 289 289 288 287 288 288 287 286 286 287 287 288 287 287 287 287 286 287 289 288 287
301 302 302 302 302 302 301 303 299 299 298 298 299 304 303 302 303 303 304 305 299 289 285 284 284 282 283 281 280 283 296 289 291 292 291 286 287 293 291 285 280 283 288 285 281 284 281 287 283 279 283 281 280 281 281 285 286 287 287 288 288 288 287 288 288 288 289 291 290 290 290 287 287 288 287 287 288 288 287 286 286 287 287 286 288 288 287
301 302 303 302 302 300 297 293 301 302 299 301 304 304 303 303 305 303 302 300 302 301 290 285 284 283 286 282 284 285 290 281 287 285 287 284 282 284 285 282 280 282 283 282 282 280 284 290 282 279 279 279 280 286 287 286 286 285 285 286 289 290 289 289 289 288 288 289 290 287 287 287 286 288 288 288 288 287 286 285 285 285 285 286 287 286 286
302 303 299 298 298 290 289 292 300 304 303 303 304 302 300 298 289 290 291 290 295 297 289 291 284 286 289 286 281 290 289 283 288 283 283 285 283 282 284 282 281 282 278 280 283 288 285 282 280 279 279 284 285 286 286 286 286 286 286 288 288 289 289 290 290 289 286 285 285 287 288 288 288 288 287 287 287 286 285 286 286 286 288 287 287 287 287
301 299 298 298 295 289 289 297 305 300 302 303 303 292 288 289 287 284 284 286 285 283 287 287 285 288 288 285 286 291 289 284 283 284 280 286 282 279 282 279 282 282 279 279 280 288 278 280 281 281 280 283 283 286 288 288 288 288 288 287 289 289 289 290 290 289 287 286 287 289 288 287 286 286 286 286 286 287 287 287 286 287 288 288 288 288 287
299 295 291 292 290 293 301 302 299 301 300 291 291 289 283 286 283 280 286 283 283 285 286 282 289 289 288 285 285 285 292 287 280 280 282 283 289 281 282 282 282 279 275 276 279 286 278 274 280 279 278 283 283 286 287 287 287 288 288 288 288 289 288 289 291 291 291 291 291 290 289 289 288 287 286 286 286 285 286 286 286 287 289 288 287 287 285
298 298 297 291 298 300 300 301 302 301 292 287 285 284 283 281 284 285 283 281 282 283 289 289 290 287 289 290 288 284 290 293 290 289 284 281 286 286 281 278 283 278 277 277 282 283 281 278 278 276 277 282 284 286 287 287 287 287 288 289 289 289 289 289 292 291 291 290 291 290 290 290 288 287 287 287 287 286 285 285 286 288 288 287 286 285 286
295 294 296 298 299 302 301 297 292 288 285 286 281 278 282 282 284 284 284 281 282 284 285 288 285 285 284 287 288 288 287 293 288 285 283 280 284 281 279 281 282 276 273 281 283 282 280 275 275 277 282 287 288 288 287 286 286 286 286 288 289 289 289 289 290 292 292 292 291 291 291 289 288 288 288 287 287 287 286 286 288 287 287 288 287 286 286
300 300 299 297 296 291 291 286 288 286 278 278 277 277 280 278 280 280 281 285 287 286 286 295 290 292 292 294 289 291 287 292 285 284 283 281 285 283 279 278 278 275 280 283 281 278 275 275 276 279 284 285 286 286 286 286 286 286 287 288 289 289 289 289 290 291 291 291 291 290 290 288 287 288 289 289 288 287 287 288 288 288 288 288 287 286 286
299 300 296 291 288 287 287 277 286 283 279 280 278 275 277 278 280 282 281 282 284 284 288 287 286 286 282 287 287 285 286 289 288 285 283 285 281 279 278 275 277 282 284 280 279 275 276 280 281 283 285 286 289 285 285 285 285 286 287 288 288 289 290 289 290 291 291 291 290 290 289 288 289 288 288 288 288 287 287 287 288 286 288 286 284 286 286
292 289 288 284 282 285 282 272 283 280 276 278 282 280 280 279 281 283 282 285 290 285 289 289 288 287 284 289 288 287 285 283 287 282 280 282 279 281 278 277 281 281 278 274 277 277 278 277 282 284 286 285 286 285 286 286 287 286 286 288 287 288 288 288 289 289 289 289 289 289 288 288 288 288 288 288 289 289 289 288 287 286 287 286 285 285 287
288 285 284 277 272 277 281 277 279 277 281 283 281 283 284 286 286 286 291 293 290 289 287 288 288 288 285 288 284 284 286 285 283 283 283 282 278 277 282 284 282 276 275 276 273 273 275 279 282 282 283 284 285 285 286 287 288 288 288 286 288 289 289 289 289 289 289 289 289 289 287 288 288 287 288 288 289 289 289 289 288 288 288 286 286 286 286
289 288 287 284 278 281 283 279 279 282 285 285 288 289 288 289 289 289 290 291 290 291 290 290 290 289 284 284 284 285 286 285 281 283 283 279 279 282 284 278 272 274 272 271 272 274 278 281 283 284 284 284 285 286 287 287 287 288 288 289 289 289 290 290 290 290 289 289 290 291 290 289 288 289 288 288 288 289 289 290 290 289 288 287 287 287 287
284 287 286 277 275 281 279 281 287 287 289 291 289 290 290 290 289 287 290 291 291 291 290 289 286 284 284 288 287 283 284 285 282 282 282 281 282 280 278 275 274 277 278 275 276 281 282 284 285 285 286 287 286 286 287 287 288 289 289 289 288 289 290 290 290 291 291 290 291 289 290 289 289 289 288 288 288 288 288 289 289 289 288 288 288 287 287
288 285 282 281 283 284 282 284 286 284 288 289 289 288 288 289 288 289 290 290 290 290 290 289 285 285 282 286 283 283 281 284 279 280 282 279 275 272 272 270 272 271 278 281 281 283 283 284 286 286 287 287 287 288 288 288 288 288 289 289 288 289 289 289 290 289 290 290 289 289 289 291 288 288 288 288 287 288 289 290 291 290 289 288 288 288 287
285 284 286 284 283 285 287 288 286 284 286 288 287 286 288 288 289 290 293 291 290 290 289 288 287 284 283 283 280 281 281 284 282 283 280 277 278 279 277 274 276 276 279 283 283 284 285 286 287 286 287 287 287 288 288 290 289 288 289 290 290 290 290 289 289 289 290 290 290 290 290 290 289 288 288 288 288 289 290 289 289 288 288 289 289 288 287
288 286 285 289 284 283 285 282 282 283 284 285 286 287 288 288 288 289 292 292 292 287 286 284 285 284 282 281 279 275 278 283 280 279 279 278 281 280 277 277 279 282 283 285 286 285 285 286 286 285 286 287 288 290 289 290 289 289 290 290 290 289 290 291 289 289 289 289 290 290 290 290 290 290 291 291 290 289 288 288 289 289 289 288 289 289 288
284 282 283 286 290 289 288 288 288 287 288 288 288 289 291 289 290 291 294 291 288 284 283 285 284 282 280 279 281 283 285 282 280 280 278 281 283 279 279 281 282 283 284 284 284 286 286 286 285 286 287 287 287 288 288 290 290 290 290 290 290 289 290 289 289 289 289 290 290 289 289 290 290 291 290 290 290 289 288 287 288 288 289 289 290 290 290
Wind_Speed
20 22 22 23 24 23 23 24 25 21 20 8 6 5 2 2 2 4 7 4 3 3 2 2 2 3 5 10 13 13 14 10 10 13 11 10 4 2 4 4 2 2 4 8 8 5 2 2 5 5 6 3 10 1 3 5 4 7 2 6 4 5 2 2 2 4 3 3 7 7 12 11 10 11 11 9 9 7 5 8 8 4 2 4 2 2 1
21 21 23 22 22 22 23 24 24 20 15 6 6 2 2 3 3 2 2 4 2 4 1 3 6 5 8 9 11 10 10 12 13 11 12 7 5 3 2 6 4 5 7 8 9 3 2 2 10 5 5 2 5 3 2 5 2 5 2 3 3 2 3 2 1 2 6 7 7 5 6 9 3 5 6 11 10 12 5 5 3 4 4 9 5 1 3
21 21 22 22 23 24 23 23 21 18 14 9 3 1 3 4 3 2 1 0 1 2 1 2 3 5 6 7 11 9 8 7 10 10 12 12 7 2 2 5 7 5 7 12 13 6 4 1 4 3 3 3 3 5 6 7 2 2 1 4 2 3 3 3 1 1 1 1 2 1 2 1 2 3 11 13 14 9 6 2 2 3 3 5 6 4 4
21 21 22 22 24 24 23 23 21 18 14 9 2 2 2 2 2 1 2 2 4 1 2 0 3 3 3 6 7 7 8 7 7 9 11 6 9 4 5 5 6 5 8 7 9 7 5 8 2 2 2 2 2 3 10 7 6 1 8 4 3 2 1 2 2 1 2 4 3 2 2 1 5 6 12 12 11 12 7 2 2 1 4 5 1 11 9
21 21 22 22 24 24 24 23 23 22 16 7 3 3 2 3 2 2 3 3 4 4 3 4 3 1 1 0 5 8 12 10 7 8 4 3 4 5 2 5 4 3 5 4 4 5 9 11 7 5 3 4 2 5 5 7 8 11 2 1 2 0 3 3 3 3 2 5 4 6 3 2 5 10 9 12 12 9 12 7 2 6 2 3 3 8 10
21 22 22 23 24 24 25 25 25 25 23 8 4 2 2 1 1 0 2 1 2 4 3 5 5 5 1 1 3 7 10 9 4 8 10 8 5 3 4 7 14 10 8 7 3 5 4 6 2 7 7 3 5 3 12 11 11 2 4 4 5 0 0 3 4 1 4 3 6 6 2 4 5 7 9 10 12 13 8 3 4 4 4 6 5 7 8
22 22 22 22 23 24 25 26 27 28 28 12 5 1 2 2 1 1 2 1 0 1 4 3 4 2 6 1 5 6 7 6 2 2 8 7 6 9 2 7 12 11 12 8 5 10 4 5 3 3 5 4 3 5 5 3 6 10 5 5 4 1 2 2 1 3 1 6 10 5 7 2 5 7 7 10 12 9 7 5 8 6 7 16 15 15 13
22 21 22 22 23 23 24 26 26 28 30 13 2 4 3 4 3 2 3 2 2 1 3 3 4 3 6 1 2 3 1 8 12 3 5 2 3 6 3 7 9 10 10 9 7 5 2 2 3 4 2 5 3 1 1 2 6 8 3 3 8 4 3 5 3 1 3 5 7 6 8 6 7 7 8 10 9 11 8 6 9 9 12 9 16 18 11
21 21 21 22 22 23 23 25 24 26 25 6 6 3 3 2 2 1 3 3 1 3 3 3 2 2 5 3 5 3 10 6 3 6 10 8 7 9 6 4 1 7 9 9 8 9 7 6 5 5 3 1 4 3 2 7 3 9 3 2 7 7 3 4 0 3 1 4 5 7 8 7 6 6 5 4 7 8 4 5 1 3 7 7 12 12 7
20 20 21 21 21 22 22 23 22 22 19 3 4 4 4 3 3 4 2 1 3 2 1 2 1 3 3 3 6 5 9 9 8 2 6 10 11 9 10 10 5 4 7 9 8 11 10 8 8 6 6 5 5 4 8 9 8 3 1 1 5 3 1 4 5 2 2 11 2 9 7 5 4 5 7 6 8 8 8 7 5 4 5 4 6 7 6
20 20 20 21 21 21 21 21 20 20 12 6 4 3 5 5 5 3 1 0 1 2 1 2 2 1 2 6 4 6 5 9 7 6 3 8 8 8 7 7 5 2 4 6 10 9 10 8 6 5 6 6 7 4 7 12 10 8 7 3 1 2 4 2 1 3 2 7 11 6 4 3 0 4 5 2 4 6 10 6 4 4 5 4 7 9 7
19 19 20 21 21 21 21 21 20 18 11 4 2 3 3 4 4 2 0 2 1 1 2 0 1 2 5 6 6 6 5 5 4 4 3 3 4 6 7 4 4 3 6 8 9 9 14 12 10 7 8 8 7 6 4 1 6 4 3 7 3 4 5 2 1 3 2 3 7 6 2 1 4 6 4 9 10 14 15 11 8 10 16 16 14 11 11
19 19 20 20 21 21 21 21 20 18 17 8 2 2 3 5 2 3 2 3 3 6 4 0 1 2 4 3 4 4 7 6 4 6 3 3 3 4 3 3 3 4 8 9 11 11 6 3 5 4 5 8 5 1 5 4 6 6 3 6 7 3 7 2 2 1 2 3 2 3 2 2 1 4 11 9 6 6 12 12 12 9 10 15 14 12 11
18 18 19 20 20 21 21 21 21 21 18 12 5 3 3 6 5 4 3 2 3 5 4 6 12 11 12 2 3 2 5 3 3 3 2 1 3 4 3 5 3 5 5 6 7 4 2 4 2 4 6 3 3 5 11 7 9 5 4 2 5 6 4 4 2 3 1 1 3 3 3 1 9 4 6 8 4 5 1 6 3 5 5 11 14 13 12
18 18 19 19 20 20 21 21 21 22 21 19 4 4 3 5 3 1 2 1 1 5 6 6 7 8 7 7 8 6 5 5 7 4 1 2 1 1 3 5 4 3 6 4 4 3 2 1 3 3 3 6 3 2 2 6 3 8 3 3 6 4 3 0 4 1 2 3 3 2 0 2 0 2 6 4 5 5 7 6 2 2 7 9 12 12 11
18 19 19 19 19 20 20 20 20 20 20 21 6 5 4 4 2 1 0 1 2 5 7 6 7 6 6 7 10 7 6 4 7 8 3 1 4 2 4 6 4 2 4 3 2 2 1 3 1 3 2 1 3 1 2 4 5 9 14 11 11 8 7 7 6 2 2 3 1 0 2 2 1 6 6 6 5 8 6 5 2 1 3 6 10 10 8
18 18 18 19 19 19 19 19 19 19 17 17 7 5 3 7 5 4 2 2 6 4 5 9 5 5 5 6 8 7 6 5 7 5 3 4 6 9 9 8 8 4 9 3 2 2 3 0 0 2 2 0 2 2 2 2 1 5 14 6 8 6 2 5 5 3 2 3 2 3 2 1 3 6 5 5 4 8 2 4 2 3 4 4 6 7 6
18 19 18 19 19 19 19 19 19 20 20 22 9 3 3 5 5 7 2 3 3 3 4 7 7 6 5 4 4 5 4 4 7 4 3 6 5 8 10 6 9 7 9 4 4 3 3 0 1 3 2 1 1 1 1 1 1 2 2 0 3 2 1 3 2 3 4 5 2 3 1 1 2 5 6 7 1 2 3 4 3 3 7 5 5 5 4
17 18 18 18 19 19 19 19 19 19 18 20 12 4 2 5 6 7 3 3 4 4 5 7 6 6 5 5 4 4 5 5 4 3 6 7 4 14 11 6 6 4 7 4 3 2 4 4 3 2 2 1 1 2 1 1 0 2 9 7 5 4 2 2 4 5 4 3 4 3 1 3 5 8 4 6 1 3 3 1 5 10 10 8 9 10 8
17 18 18 18 19 19 20 20 20 19 19 20 10 1 7 5 5 6 5 3 1 4 3 4 6 8 5 6 6 7 6 7 6 4 5 4 10 12 7 7 8 6 8 6 6 4 3 4 3 2 3 1 1 1 2 6 7 4 2 3 4 2 2 2 2 2 2 2 4 1 2 4 6 5 3 8 6 2 6 9 9 7 10 10 9 9 8
16 17 18 17 18 19 20 20 20 20 20 22 13 3 4 4 6 6 3 3 0 3 2 2 5 7 4 5 4 6 6 6 5 5 5 3 7 3 4 3 7 4 4 3 5 4 3 4 5 2 2 2 3 3 3 1 4 6 3 3 3 4 3 2 2 1 2 2 3 3 3 3 7 8 4 1 1 2 4 8 8 6 7 9 10 10 9
16 16 17 17 18 19 19 20 20 19 19 20 17 4 3 6 6 7 7 4 1 2 2 2 3 4 4 4 1 4 5 4 4 2 3 5 5 5 1 3 5 3 1 2 2 2 4 2 2 3 4 4 3 3 6 6 4 2 5 5 4 4 5 2 4 3 2 2 4 6 5 6 7 8 7 6 8 10 11 12 10 10 9 8 9 8 8
15 16 16 17 17 18 18 19 19 19 18 19 12 3 2 6 7 7 4 3 2 2 0 2 4 3 2 5 4 4 4 2 2 3 4 3 3 5 6 5 4 3 1 2 1 1 3 2 2 0 2 3 4 3 7 4 3 3 3 2 6 8 11 8 8 8 10 9 8 7 7 7 8 8 8 9 11 10 9 10 11 10 9 7 8 8 7
15 15 15 16 16 17 17 17 18 18 18 17 9 3 3 5 5 7 7 2 2 0 4 6 4 2 1 5 3 4 4 3 3 3 4 5 4 3 1 1 0 2 2 4 1 1 3 0 2 1 3 3 4 6 4 5 3 3 4 3 1 3 3 3 6 5 6 4 4 7 7 6 8 10 11 10 9 8 8 10 10 10 10 10 9 9 8
16 16 15 15 15 16 17 17 17 18 17 18 14 5 4 3 3 5 4 3 4 2 1 1 2 3 2 4 1 3 4 3 3 4 3 5 3 2 2 3 1 1 4 5 3 4 2 3 5 4 3 1 4 2 3 4 3 3 5 4 2 2 3 8 4 4 4 5 6 6 6 7 8 7 7 8 9 9 9 8 8 8 8 8 8 8 8
15 15 15 14 15 15 16 16 17 17 16 18 11 4 3 4 4 4 1 1 1 1 0 1 0 0 1 2 3 6 5 5 6 4 5 4 2 2 3 3 2 2 3 3 1 6 4 3 3 3 4 3 3 2 3 3 3 4 8 4 1 3 4 3 3 6 6 7 6 7 8 8 8 9 8 6 6 8 9 8 8 8 10 9 8 7 6
15 15 15 14 14 15 16 16 16 16 16 16 9 5 3 6 3 6 3 3 2 1 4 1 1 1 2 4 2 4 5 6 5 4 4 5 4 4 4 5 6 5 6 7 1 4 3 3 4 4 3 1 2 2 1 4 5 3 5 4 5 9 7 4 8 9 4 4 6 7 6 5 6 7 6 5 5 7 7 7 8 9 8 7 8 6 6
15 15 15 14 15 15 15 16 15 16 15 15 8 6 4 2 4 6 5 5 4 2 1 3 1 0 3 4 3 5 5 4 4 4 4 3 3 2 2 4 5 5 5 5 5 4 4 6 4 2 1 2 5 5 5 1 5 5 6 4 3 6 3 3 4 5 5 6 4 6 6 6 6 7 7 7 6 5 4 5 7 8 7 8 8 8 6
15 15 15 15 15 15 15 15 15 14 15 11 6 5 4 2 5 6 6 5 2 0 3 3 1 2 1 1 3 2 4 4 2 2 2 3 4 4 5 5 5 4 3 2 2 3 3 2 0 2 1 0 1 3 4 4 5 5 1 4 4 3 4 8 9 9 7 4 6 7 5 6 5 7 9 10 9 11 10 10 9 8 7 8 7 6 6
15 16 15 15 15 15 15 14 14 14 13 6 2 1 0 1 3 5 5 3 3 0 1 3 2 1 0 2 3 5 3 5 2 3 4 3 1 4 3 2 4 4 2 2 2 3 1 1 1 2 1 1 2 1 2 2 4 2 1 3 3 6 9 9 8 7 6 7 7 7 8 6 6 10 10 9 8 8 8 7 5 5 5 5 7 7 5
16 15 15 15 15 15 14 14 12 13 10 3 1 0 0 0 1 3 6 4 4 1 0 0 1 0 1 1 0 3 5 4 2 1 4 4 2 2 1 3 4 4 6 6 3 2 1 2 1 1 0 2 2 1 1 2 3 2 4 5 6 7 5 6 6 6 7 8 8 7 4 3 4 8 7 7 8 8 6 4 5 5 3 6 8 7 7
16 16 16 15 15 14 13 12 11 9 5 3 2 1 1 1 3 6 7 6 4 1 0 1 1 1 1 1 0 1 2 2 0 2 1 3 2 3 3 2 2 1 2 1 1 1 2 1 2 1 3 3 2 1 3 4 4 4 5 7 6 8 8 7 5 6 7 4 6 9 9 7 7 7 4 4 7 8 9 6 5 4 3 5 7 8 8
15 15 15 15 15 14 12 11 9 5 2 4 7 8 9 7 8 8 5 5 1 1 1 0 1 0 1 2 1 1 2 2 1 2 2 3 2 2 1 1 2 2 2 2 2 1 0 1 1 2 1 2 2 1 2 3 3 5 8 7 7 6 5 5 5 6 6 7 7 6 5 4 4 5 5 4 3 6 6 5 4 5 4 5 6 7 8
16 15 15 15 14 11 10 9 8 5 4 2 1 2 2 2 5 5 4 1 1 1 0 0 1 0 0 2 1 2 2 1 2 2 1 2 1 1 1 2 0 2 3 2 0 1 2 3 2 0 1 1 0 2 2 3 5 6 8 7 6 6 5 5 5 6 6 6 7 7 4 4 4 4 4 3 3 5 6 5 4 4 5 2 6 9 8
16 15 15 13 11 9 9 6 2 1 1 3 1 0 1 2 3 5 3 1 2 1 0 1 0 1 0 0 1 1 2 1 1 1 1 1 1 2 1 3 3 1 2 1 2 2 2 1 1 2 1 0 2 1 2 4 6 5 5 6 6 6 4 3 2 5 5 4 4 3 2 2 2 3 3 3 3 6 7 5 6 5 4 2 5 7 6
16 15 14 12 10 6 2 2 1 1 0 0 0 2 3 5 5 2 2 1 0 0 0 2 0 1 1 3 1 1 2 1 2 1 1 1 1 1 1 1 2 2 1 1 2 3 2 1 1 1 0 2 2 2 2 4 5 5 6 3 5 5 5 4 5 6 5 5 7 5 6 4 4 1 1 2 6 7 7 6 5 2 1 2 5 5 6
16 15 13 9 4 1 1 1 2 0 1 2 4 6 8 4 2 1 0 0 1 1 1 0 2 3 1 2 0 1 1 2 2 2 3 2 0 1 2 2 1 1 2 1 3 2 1 1 2 0 1 2 1 4 7 6 6 4 4 2 3 4 3 3 8 8 6 6 5 3 3 2 3 0 1 1 7 6 7 6 5 3 1 2 2 5 5
14 9 2 1 0 0 1 0 0 1 4 6 6 3 0 1 0 0 0 1 1 2 1 1 1 2 2 4 1 3 0 2 3 1 1 1 1 2 1 1 1 1 3 1 1 1 1 1 0 1 4 4 4 6 5 5 4 4 5 5 5 3 5 8 6 5 5 3 4 3 1 0 2 3 6 3 3 6 6 5 5 4 1 3 3 3 5
3 1 1 2 1 1 0 1 1 2 1 3 0 0 0 1 0 0 1 1 1 1 2 1 1 5 5 4 1 2 2 1 2 3 2 1 1 1 1 2 1 1 1 1 2 2 2 1 1 2 1 1 3 2 4 6 6 5 5 4 5 4 4 4 5 6 3 3 5 6 4 2 3 3 3 5 3 5 5 5 4 4 1 4 1 4 5
1 1 1 1 0 0 1 2 2 1 1 1 0 0 0 0 0 0 1 0 0 0 0 1 1 2 2 2 1 2 4 3 4 2 1 1 1 1 1 0 0 1 1 2 1 1 1 1 1 3 2 4 2 4 5 5 6 6 5 5 5 6 6 2 3 3 5 2 5 7 6 4 4 3 0 1 4 5 5 4 4 1 0 2 5 6 7
1 2 1 1 2 0 1 2 1 0 0 1 0 0 0 0 1 0 1 1 1 1 0 0 1 1 0 1 4 3 3 1 0 0 0 1 2 0 1 0 0 0 0 1 0 0 0 1 1 2 2 1 3 2 5 7 7 6 6 5 5 6 6 7 1 4 4 1 1 4 5 6 5 3 3 3 6 4 4 4 4 2 2 3 4 5 8
1 2 2 4 5 5 1 0 0 0 0 0 0 1 0 0 0 0 0 0 1 1 1 1 3 2 2 2 1 3 0 1 0 0 0 1 1 1 0 1 1 1 0 0 1 1 0 0 1 2 3 0 3 5 6 6 6 5 5 2 4 5 5 6 6 2 4 3 4 6 7 5 4 2 1 5 6 6 4 3 0 3 4 5 5 4 7
13 8 3 3 1 0 0 0 1 0 0 0 1 1 1 0 1 1 1 0 1 1 1 1 2 0 1 1 1 2 2 0 1 0 0 0 1 0 1 1 1 0 0 1 1 0 1 1 1 2 1 5 5 6 5 4 3 3 4 4 3 3 3 4 5 3 4 6 5 5 4 3 2 1 2 6 6 5 3 2 3 4 4 2 2 6 7
6 3 2 1 0 1 0 0 0 1 1 0 1 1 1 1 1 1 1 1 0 2 2 1 3 3 0 1 1 1 2 1 0 0 0 0 0 0 0 0 1 0 1 0 0 1 1 2 1 3 3 4 3 4 5 3 2 2 3 4 5 1 1 3 5 6 4 4 4 4 5 3 1 2 2 5 7 7 6 5 6 4 1 3 4 7 7
1 0 0 1 1 0 1 2 2 0 1 1 1 2 2 3 2 2 2 2 1 3 2 1 1 2 4 1 2 2 1 0 0 2 0 0 1 0 1 1 1 1 0 1 1 1 0 2 2 3 4 4 2 3 3 2 1 3 4 4 5 6 7 4 1 3 2 2 3 3 1 1 0 1 0 5 5 7 8 7 6 5 4 4 3 4 8
0 1 1 3 3 3 0 1 1 1 1 1 3 3 2 4 4 4 1 1 3 3 5 3 3 4 1 1 2 1 0 0 0 0 0 1 0 0 1 0 0 1 1 1 1 1 1 1 2 3 3 3 4 5 4 4 4 4 4 3 5 6 7 9 9 2 2 4 2 4 3 1 1 3 1 1 1 3 5 6 5 6 6 6 5 5 5
1 0 0 0 1 1 1 1 2 3 2 3 1 5 6 5 4 3 2 3 5 3 5 2 2 2 2 2 2 1 1 1 0 0 1 0 0 0 1 2 0 0 0 1 1 1 2 1 0 2 3 3 3 4 3 2 2 3 4 4 4 2 3 4 6 3 2 1 6 6 1 1 1 2 1 2 2 0 1 1 1 3 4 2 1 1 1
0 0 0 1 2 1 2 3 2 4 3 3 5 5 5 4 4 5 4 3 4 5 4 2 2 3 2 1 1 0 0 1 0 1 1 0 0 0 1 1 0 0 0 1 1 3 2 0 2 2 1 1 2 3 4 3 2 1 1 0 1 1 1 1 2 5 1 4 2 4 7 3 1 1 2 1 2 4 5 3 1 2 3 1 2 4 4
1 0 0 1 1 1 2 3 4 3 2 6 5 5 3 6 6 5 4 3 5 5 4 3 1 0 0 0 0 0 0 1 1 0 0 1 1 0 0 0 0 1 1 1 0 2 2 3 3 2 1 2 2 2 1 1 2 2 1 2 3 4 4 3 3 3 4 3 7 6 2 3 3 3 4 3 3 3 2 1 0 1 4 3 3 3 4
1 0 0 1 2 2 4 4 1 2 4 5 3 4 8 7 6 3 3 3 2 2 4 2 2 1 0 0 1 1 0 1 0 0 0 1 1 0 1 1 1 2 1 1 2 3 3 3 2 0 0 1 2 3 3 2 3 4 4 3 2 2 5 4 2 3 3 2 1 2 4 1 5 4 4 5 4 2 1 1 3 4 4 4 3 4 4
0 0 1 0 1 3 4 4 2 1 3 4 3 5 6 6 2 2 3 1 3 3 0 0 0 0 0 0 1 0 0 1 1 0 1 1 0 1 2 2 0 2 2 1 5 4 2 2 4 3 3 3 2 2 2 1 3 3 2 4 4 4 2 1 3 3 2 2 0 2 1 3 7 3 3 4 4 2 3 5 4 4 4 4 4 4 5
0 1 1 2 5 6 5 2 1 5 6 6 6 4 8 4 1 2 0 1 2 1 2 1 0 0 1 1 0 0 0 0 0 1 1 1 1 1 0 1 1 1 2 3 2 1 3 4 4 3 2 1 2 3 3 4 3 2 2 2 2 3 1 1 1 1 1 2 3 3 3 5 6 0 2 3 4 4 5 5 4 4 4 4 5 6 5
Wind_Direction
341 343 343 343 343 343 341 342 343 345 346 358 355 319 292 220 262 152 142 144 155 222 274 308 348 305 308 320 292 290 288 284 295 311 308 284 260 312 315 328 310 11 351 303 277 293 274 139 134 190 105 192 225 175 87 6 36 27 333 3 321 23 20 359 305 354 321 341 25 42 45 34 21 22 12 15 23 325 210 183 176 167 314 32 355 57 255
344 344 344 343 343 341 340 341 343 343 356 345 310 294 293 306 296 35 133 146 232 72 14 327 314 306 314 314 304 305 297 297 296 285 288 299 280 296 324 328 350 318 324 314 303 330 328 182 142 162 177 185 231 187 119 56 51 82 245 116 291 26 296 97 332 356 346 346 350 14 20 51 51 10 7 23 19 20 352 79 44 98 202 149 134 205 261
345 345 345 342 342 342 339 338 338 340 342 338 325 316 301 285 260 148 345 99 139 95 192 245 295 281 310 320 309 310 295 281 280 298 303 305 308 18 334 334 328 306 339 317 291 245 278 352 35 88 103 162 218 185 135 117 95 117 114 149 62 98 238 51 73 128 133 271 255 261 330 289 290 25 23 30 21 3 26 56 17 85 319 105 124 116 108
346 346 346 343 342 339 337 336 334 334 341 328 246 261 313 308 6 335 85 3 49 95 201 80 308 326 347 330 291 288 287 288 305 310 278 313 336 20 350 312 330 321 311 315 328 330 330 276 143 227 125 130 250 173 152 146 164 315 359 28 101 153 238 152 148 134 188 199 192 213 137 39 66 39 35 22 30 26 53 65 100 156 187 97 178 144 134
348 347 346 344 342 339 338 335 333 332 337 328 210 247 215 304 49 354 344 340 27 341 336 352 351 245 141 345 315 327 333 326 313 341 299 38 1 340 25 318 329 307 317 300 312 325 352 2 48 344 35 342 16 21 353 162 154 115 127 343 78 74 89 244 187 205 199 163 161 175 147 144 78 56 40 45 41 42 50 59 245 286 70 81 8 128 111
349 348 346 345 343 341 339 337 338 336 333 335 192 289 206 112 301 49 189 131 290 357 344 347 353 331 256 182 315 337 339 338 343 336 319 331 353 349 347 6 346 333 9 350 323 346 355 51 24 355 11 351 348 27 15 31 1 34 165 135 97 170 178 259 135 239 250 197 147 138 117 66 75 75 68 61 56 45 51 359 309 279 159 161 126 106 99
350 349 347 345 343 343 342 342 342 340 333 336 182 31 3 91 140 48 360 62 335 73 300 23 351 295 34 272 7 12 1 325 3 60 327 317 353 10 23 350 355 6 20 45 37 23 27 357 27 13 1 347 8 18 344 59 41 355 17 24 24 350 126 306 146 206 135 61 72 64 80 100 83 85 76 80 70 57 43 21 358 39 94 121 116 94 68
350 349 347 346 345 346 346 347 347 343 339 335 137 59 29 21 5 338 321 250 104 40 349 17 336 27 17 351 32 267 319 40 353 258 199 332 21 343 53 353 4 16 31 30 38 2 31 325 44 177 161 295 69 104 188 276 355 11 10 353 354 39 305 341 305 49 118 106 92 69 67 74 92 70 66 77 80 63 47 35 4 52 68 80 97 90 82
351 349 348 346 346 348 347 351 350 348 346 27 4 29 35 333 31 321 356 326 248 109 13 42 344 11 344 3 16 18 14 61 29 328 7 37 23 16 25 33 296 23 24 24 9 352 345 330 316 327 339 165 245 143 233 122 1 347 1 35 355 6 200 242 244 54 342 124 116 92 74 49 55 68 56 46 71 66 8 61 320 47 98 92 84 78 88
352 351 348 347 348 349 348 351 352 355 341 38 344 360 322 359 356 21 356 304 321 70 324 33 27 5 276 335 10 360 6 12 14 40 336 10 23 12 12 8 20 25 25 13 337 317 320 316 312 303 288 277 269 202 155 160 140 164 215 205 116 227 1 31 7 58 7 343 66 104 95 65 31 354 327 340 78 111 97 72 78 116 116 53 87 98 107
353 351 349 348 349 349 349 351 352 0 3 27 351 319 325 21 323 317 83 66 323 55 84 48 58 206 275 7 355 13 358 0 25 21 360 352 12 6 11 18 11 344 16 324 305 299 298 292 284 278 284 283 283 304 154 175 162 151 156 115 90 63 86 98 29 107 327 329 37 13 56 53 194 257 281 288 119 89 79 73 75 90 98 114 84 107 101
354 352 350 349 349 349 349 351 351 357 9 320 267 264 277 336 305 273 173 156 141 162 113 152 27 15 24 7 19 354 351 342 22 344 25 341 337 5 356 359 33 350 311 307 304 312 298 272 251 242 252 273 275 270 275 126 146 123 129 124 117 103 85 101 150 96 136 271 51 55 70 143 248 291 1 67 82 78 74 58 51 91 100 96 89 82 84
354 353 351 350 349 349 349 349 351 352 357 346 276 264 305 345 343 344 359 37 40 21 19 77 311 34 36 17 24 352 327 338 10 6 32 346 336 2 352 341 341 317 314 304 310 303 314 338 306 273 234 220 234 309 6 31 88 60 63 117 114 117 100 135 43 80 87 72 106 148 157 176 290 33 31 13 58 58 69 55 35 46 91 109 104 106 114
355 353 352 351 350 349 350 350 349 349 351 356 330 299 302 10 14 1 39 41 359 20 5 8 4 352 336 20 23 22 323 4 342 359 356 288 26 350 332 342 323 288 288 302 299 312 11 14 22 14 351 16 23 31 337 13 40 86 126 49 87 131 106 101 87 17 146 148 85 97 125 74 5 4 13 3 22 348 304 107 28 45 98 108 117 124 130
356 356 354 352 351 350 350 351 350 350 350 355 309 316 342 10 26 8 293 176 121 41 22 30 332 338 338 16 12 14 348 330 352 309 311 258 118 78 318 305 294 289 298 325 340 345 92 39 28 14 3 37 44 294 337 3 347 3 37 107 112 93 110 215 97 293 95 102 96 67 49 129 7 304 302 330 354 349 342 102 61 51 102 113 122 131 138
355 356 355 353 352 351 352 351 352 351 353 352 353 350 306 344 322 306 117 295 72 44 342 3 355 356 10 12 1 11 348 350 353 319 309 21 21 347 8 323 305 295 318 351 308 10 16 86 315 61 63 163 239 31 325 351 351 338 354 357 77 64 84 97 111 138 39 63 118 53 89 96 224 296 295 317 344 354 334 80 98 192 131 130 127 137 144
355 354 355 354 352 352 352 354 352 352 353 1 338 326 307 350 10 351 4 1 75 75 6 16 12 12 16 3 359 6 357 21 342 347 352 358 16 354 345 340 340 354 12 3 331 43 18 353 183 137 73 110 120 191 150 63 359 352 334 348 78 71 19 60 47 77 129 144 89 108 53 118 288 304 312 348 329 357 3 85 235 180 132 131 122 124 128
355 356 355 354 353 352 353 354 355 353 355 356 358 325 299 335 357 360 357 78 90 40 3 31 26 27 25 2 4 343 1 359 352 332 23 332 8 351 325 350 350 11 14 48 348 38 357 13 72 79 109 344 118 318 131 189 143 208 233 114 35 29 353 55 105 115 114 113 96 101 143 323 300 300 303 302 182 55 47 120 197 165 123 111 100 107 106
357 356 355 355 353 353 353 355 356 355 357 358 343 329 307 346 360 34 15 35 64 62 12 38 53 56 24 26 21 13 26 17 355 19 335 350 348 322 311 97 7 347 2 2 349 52 19 349 356 77 88 303 358 46 112 61 231 76 40 24 31 12 8 10 38 44 59 38 73 106 80 246 255 282 287 304 102 66 119 256 70 85 89 90 94 90 80
356 356 356 355 353 354 353 354 355 355 356 357 1 299 275 312 13 57 62 355 33 86 17 50 35 53 50 38 15 22 360 25 18 22 18 338 301 324 18 8 351 11 360 12 29 339 42 6 323 3 66 72 276 207 23 55 45 48 74 75 97 290 42 51 32 330 62 59 99 83 65 343 331 286 358 5 85 93 114 94 81 86 87 92 88 86 82
356 356 356 355 355 354 354 354 354 355 357 355 357 333 325 351 4 10 49 42 349 82 4 20 77 61 45 61 42 39 42 41 16 5 330 309 290 352 64 9 330 349 10 1 14 342 353 349 353 5 339 62 338 51 328 179 60 7 75 110 71 344 82 46 45 324 112 78 72 89 44 39 3 70 118 308 178 224 86 102 91 59 69 77 78 65 68
355 356 355 355 355 355 354 353 352 353 356 357 353 341 356 336 348 6 340 341 110 143 214 211 116 124 91 50 94 101 65 30 58 46 4 335 342 58 89 10 358 357 25 341 24 353 359 322 358 30 14 343 1 34 332 64 48 328 26 59 58 358 98 102 102 328 98 115 117 90 90 70 47 61 75 64 42 57 79 88 84 77 60 59 70 78 77
354 353 354 353 353 353 353 352 350 350 353 357 4 27 301 321 337 339 353 336 356 18 302 321 41 29 70 81 40 6 107 89 102 53 34 45 359 34 48 20 350 323 2 51 102 233 267 21 287 133 35 38 344 327 30 72 102 11 72 62 135 100 103 96 79 67 77 75 87 99 74 73 77 65 61 57 56 51 64 74 80 68 73 64 71 61 65
351 350 350 351 350 350 351 350 350 348 349 350 358 319 321 313 308 352 347 325 104 39 351 0 62 330 350 36 0 39 11 66 57 114 93 77 70 351 352 53 277 347 342 306 228 234 271 273 261 38 72 331 5 43 41 22 32 352 48 30 62 83 105 84 102 154 100 90 79 91 106 101 89 78 66 60 58 61 63 72 73 80 76 73 64 62 55
349 349 348 348 347 347 347 348 348 346 345 348 347 302 260 281 342 10 23 13 353 22 149 317 22 237 2 93 329 59 52 12 42 52 57 74 75 86 351 277 192 169 279 284 336 24 15 42 10 28 69 335 59 12 14 84 6 42 83 5 23 7 84 73 80 82 81 128 117 107 96 85 85 91 90 83 77 73 71 76 79 80 78 79 77 64 56
347 347 347 345 345 344 344 344 345 343 343 342 345 326 333 312 343 4 30 34 271 192 107 94 244 307 31 45 54 66 47 38 350 53 42 41 70 343 315 338 7 192 226 283 27 39 11 26 37 44 49 323 55 65 8 349 95 60 81 25 330 53 36 112 138 103 92 94 107 108 98 88 87 85 87 96 105 102 97 90 84 80 80 79 75 79 80
344 345 343 343 342 341 341 341 341 340 339 342 335 316 308 301 14 49 37 323 8 359 14 85 205 182 84 74 53 68 53 43 356 7 32 30 26 8 22 12 14 348 8 352 352 79 42 51 61 9 21 306 342 272 79 16 42 49 42 359 5 51 49 71 89 100 131 151 148 136 116 120 106 112 125 127 121 116 117 119 109 105 106 103 94 75 71
341 340 339 339 340 338 338 337 337 336 339 336 318 292 278 292 58 33 6 8 67 126 211 282 319 139 316 10 42 83 58 67 12 17 5 12 25 27 29 25 24 11 348 38 14 33 44 47 0 297 64 340 34 344 349 63 77 42 41 29 26 83 78 92 104 127 114 122 150 120 120 107 125 140 144 142 140 126 111 101 120 131 128 122 116 115 102
337 336 335 336 335 336 334 333 333 334 337 335 306 304 296 101 77 54 8 340 354 29 249 232 202 42 74 260 337 49 112 100 56 39 15 350 351 16 26 35 34 346 339 34 38 81 82 110 77 62 59 258 86 321 354 62 73 80 73 73 74 80 75 86 95 94 87 98 93 100 112 119 116 88 71 66 70 80 75 69 70 78 88 94 106 117 111
334 333 332 332 332 332 330 330 330 333 335 322 311 293 35 343 20 59 9 340 323 335 42 24 54 259 287 34 9 342 316 107 58 344 339 306 296 40 18 39 27 353 11 52 73 54 332 109 354 24 16 33 86 280 45 27 75 101 11 48 42 67 73 75 74 88 116 105 97 96 99 97 96 99 102 101 100 94 88 83 83 75 72 95 78 55 47
333 332 331 330 329 327 327 325 327 331 334 305 274 9 61 68 285 56 4 342 319 28 61 114 251 127 78 252 206 326 312 97 110 9 312 331 55 46 333 78 30 33 39 355 37 43 46 50 5 26 3 57 102 53 16 75 72 50 58 69 55 67 68 89 93 100 111 121 128 130 111 100 108 96 87 112 118 110 106 98 100 106 103 96 99 99 81
331 331 329 328 325 322 320 321 327 336 307 337 46 112 162 229 261 332 328 307 322 24 92 358 298 113 105 308 288 232 311 26 134 141 323 359 23 18 345 65 124 41 100 57 258 44 4 318 93 334 27 323 53 28 45 82 103 119 87 62 51 58 56 56 56 57 53 64 103 86 74 69 81 102 100 80 125 134 133 142 140 143 146 119 123 111 111
324 324 323 321 320 318 317 316 326 340 311 308 270 278 276 281 314 309 304 314 299 219 278 23 249 201 128 218 257 298 16 338 325 101 352 320 45 32 333 348 108 64 23 77 350 79 221 61 60 46 297 337 64 357 86 109 131 118 104 96 77 64 61 55 69 64 64 53 57 96 117 120 132 135 136 151 130 90 111 137 158 141 100 93 114 96 85
322 323 321 321 319 318 317 316 302 283 262 295 336 221 200 211 286 266 291 242 267 286 27 151 335 3 194 319 60 298 358 34 319 76 87 302 323 49 79 301 67 75 319 106 229 74 344 59 56 234 9 342 27 63 17 70 85 98 106 101 100 84 74 68 64 73 64 67 76 77 73 73 86 82 81 64 92 110 94 76 73 77 109 131 112 130 132
320 321 322 320 318 313 301 293 295 210 260 248 249 47 22 333 293 291 311 14 37 355 343 278 143 308 83 23 52 283 312 358 38 350 112 240 50 347 335 36 338 67 287 253 18 118 93 297 241 62 189 354 41 65 39 42 64 91 109 115 120 117 97 84 99 95 86 70 65 80 71 79 107 166 165 170 129 108 95 90 75 50 26 358 132 133 131
317 318 318 314 305 291 276 215 220 261 265 351 296 196 214 283 284 249 235 304 132 113 6 280 27 246 179 113 109 275 332 357 331 311 98 88 37 291 54 97 45 269 242 92 91 41 66 292 75 21 27 68 73 91 100 64 63 50 58 79 149 151 153 159 137 114 104 93 85 66 47 19 340 75 76 196 142 132 121 114 107 84 295 336 105 126 108
316 315 306 299 276 252 276 238 189 151 224 226 281 312 295 295 225 189 190 218 244 187 204 298 354 286 101 151 119 305 11 41 307 27 19 40 333 292 25 35 83 271 10 20 39 41 256 110 92 318 347 135 124 49 62 60 58 65 77 53 43 89 127 124 127 124 129 112 108 116 158 225 289 356 250 92 115 130 120 123 118 103 22 302 145 145 155
308 299 304 293 274 251 253 337 339 254 27 308 299 331 357 49 3 302 114 272 194 115 264 183 244 279 33 71 45 295 3 331 346 81 16 323 32 5 349 94 236 63 5 67 256 219 290 44 175 99 28 51 84 64 66 65 55 59 58 38 25 37 96 122 119 117 131 143 146 157 118 58 335 355 25 354 133 123 125 125 114 110 91 309 283 157 137
261 261 239 274 263 329 33 254 91 35 305 268 102 40 289 175 68 323 210 172 80 292 255 108 319 41 53 63 54 339 81 224 353 19 69 321 79 336 24 44 298 63 329 46 302 340 18 325 182 80 43 329 43 44 57 46 35 27 52 59 58 34 62 130 142 143 163 168 151 135 128 116 71 33 19 3 67 108 115 111 120 119 160 272 256 119 102
192 171 222 200 160 226 235 103 43 332 21 13 281 102 316 206 111 195 292 44 307 283 41 32 284 70 109 105 114 346 326 46 66 6 4 9 34 109 272 316 298 73 339 57 275 323 86 325 331 68 353 331 26 28 42 57 56 39 39 30 27 16 2 15 185 159 129 111 125 131 130 124 108 90 356 290 122 114 104 107 105 112 159 156 123 101 110
349 291 320 27 349 206 220 184 219 356 75 244 296 340 28 335 275 158 82 254 204 176 144 155 205 103 25 32 56 69 292 1 33 117 122 105 257 86 12 3 238 47 306 70 288 33 27 352 27 104 217 148 99 49 45 54 47 35 27 20 29 16 13 352 4 139 110 96 61 113 104 98 91 72 25 71 99 119 128 140 136 224 193 163 122 136 134
335 267 333 298 270 266 273 325 84 333 307 325 101 263 196 202 288 9 220 129 98 117 42 34 23 23 49 19 134 136 74 275 206 75 86 72 291 99 247 317 19 92 31 285 295 310 53 315 55 67 273 68 84 58 63 61 52 34 360 6 41 24 14 357 354 65 106 94 89 90 83 75 69 32 110 118 119 123 126 105 143 262 232 183 175 127 130
299 269 189 264 242 279 115 255 236 144 103 1 47 11 320 12 189 210 206 211 259 81 246 269 139 163 26 356 37 76 164 216 64 334 51 122 256 67 56 23 38 352 268 339 40 320 44 287 77 175 224 72 62 64 68 71 48 15 356 344 97 60 19 348 338 349 94 85 78 77 102 105 139 258 128 117 122 126 130 163 215 241 214 182 172 142 156
252 219 179 222 170 249 131 304 96 39 2 248 143 164 214 255 261 240 128 160 286 48 344 100 184 136 232 313 109 11 38 1 36 55 17 38 67 353 72 178 176 237 120 19 17 11 279 59 84 186 175 112 90 85 74 45 350 3 29 12 6 11 40 10 0 354 29 65 75 93 90 88 34 319 142 157 143 147 165 206 226 208 167 103 92 135 168
316 167 193 26 14 257 60 329 311 134 225 204 208 220 165 210 195 76 122 241 79 169 209 39 359 53 118 226 41 27 88 146 345 94 227 56 23 247 140 294 9 18 21 281 326 293 332 77 296 30 53 67 81 126 146 129 63 75 52 21 25 6 1 351 14 347 335 116 122 105 90 85 112 291 134 159 170 163 172 202 205 201 207 183 192 184 162
238 145 102 86 354 302 201 201 152 213 250 202 218 231 87 47 76 104 58 39 90 67 77 42 23 50 32 164 128 179 311 122 39 261 141 109 119 309 50 344 56 13 1 5 20 325 89 121 35 39 32 44 26 27 46 50 44 48 55 43 25 25 14 359 330 294 23 11 52 106 117 130 269 281 238 106 161 209 205 204 196 196 180 184 184 213 179
261 291 150 80 63 228 192 207 214 214 200 203 201 102 98 97 82 72 42 36 56 70 88 40 37 103 67 346 19 7 73 80 106 291 63 16 159 346 57 84 354 357 353 323 273 257 101 220 98 60 18 3 43 35 35 57 51 34 58 65 61 33 15 352 342 335 116 42 1 343 356 143 190 266 282 200 210 280 271 184 127 116 114 140 176 216 158
288 185 105 113 222 171 180 243 226 265 277 88 92 83 94 98 77 58 32 55 71 44 51 26 19 6 22 329 92 176 282 89 35 311 110 227 47 85 49 39 293 258 170 201 274 54 122 159 101 76 15 33 70 36 8 7 20 99 108 154 151 157 205 292 339 321 300 126 171 254 281 235 167 226 245 219 224 223 233 212 205 172 147 153 229 255 237
148 63 255 206 217 233 237 239 227 217 118 74 79 99 100 82 81 70 44 48 53 61 57 61 72 50 351 208 171 304 5 81 79 291 40 66 91 232 105 239 205 300 262 121 151 139 144 129 123 94 38 356 14 52 320 352 3 329 222 226 212 181 200 206 242 265 268 212 190 210 237 15 330 259 242 208 210 256 233 168 139 173 166 183 230 258 277
29 307 280 277 317 273 266 245 99 84 85 79 70 86 93 102 91 45 5 72 74 37 28 42 64 83 285 47 358 48 324 99 167 92 87 219 208 196 125 246 181 200 283 25 93 91 99 126 129 132 95 50 8 2 341 344 340 305 306 299 290 190 181 203 231 269 276 246 239 135 115 207 268 260 210 200 199 199 227 214 201 217 202 197 215 267 283
194 209 265 242 244 272 350 355 30 55 80 108 85 57 76 81 81 56 336 30 76 65 67 134 173 152 345 9 65 20 290 52 24 261 165 231 159 223 191 209 100 61 54 72 131 157 153 123 98 85 47 14 352 346 318 295 278 287 339 314 308 309 321 272 246 233 263 258 222 100 163 230 246 259 25 24 13 333 227 219 222 217 205 198 207 232 253
204 242 253 240 230 253 229 188 68 75 88 75 80 94 94 99 136 142 308 40 108 125 229 168 98 4 164 208 101 21 49 33 247 10 359 304 53 320 343 130 133 140 97 41 3 1 71 77 88 90 71 337 301 297 298 289 287 286 275 280 317 302 298 289 316 301 245 212 219 213 220 244 264 222 78 39 39 44 4 324 281 225 215 216 208 207 220